EHI
0 0 0 0 0 0 0 0 0 0 0 0 0 0 0 0 0 0 0 0 0 0 0 0 0 0 0 0 0 0 0 0 0 0 0 0 0 0 0 0 0 0 0
0 0 0 0 0 0 0 0 0 0 0 0 0 0 0 0 0 0 0 0 0 0 0 0 0 0 0 0 0 0 0 0 0 0 0 0 0 0 0 0 0 0 0
0 0 0 0 0 0 0 0 0 0 0 0 0 0 0 0 0 0 0 0 0 0 0 0 0 0 0 0 0 0 0 0 0 0 0 0 0 0 0 0 0 0 0
0 0 0 0 0 0 0 0 0 0 0 0 0 0 0 0 0 0 0 0 0 0 0 0 0 0 0 0 0 0 0 0 0 0 0 0 0 0 0 0 0 0 0
0 0 0 0 0 0 0 0 0 0 0 0 0 0 0 0 0 0 0 0 0 0 0 0 0 0 0 0 0 0 0 0 0 0 0 0 0 0 0 0 0 0 0
0 0 0 0 0 0 0 0 0 0 0 0 0 0 0 0 0 0 0 0 0 0 0 0 0 0 0 0 0 0 0 0 0 0 0 0 0 0 0 0 0 0 0
0 0 0 0 0 0 0 0 0 0 0 0 0 0 0 0 0 0 0 0 0 0 0 0 0 0 0 0 0 0 0 0 0 0 0 0 0 0 0 0 0 0 0
0 0 0 0 0 0 0 0 0 0 0 0 0 0 0 0 0 0 0 0 0 0 0 0 0 0 0 0 0 0 0 0 0 0 0 0 0 0 0 0 0 0 0
0 0 0 0 0 0 0 0 0 0 0 0 0 0 0 0 0 0 0 0 0 0 0 0 0 0 0 0 0 0 0 0 0 0 0 0 0 0 0 0 0 0 0
0 0 0 0 0 0 0 0 0 0 0 0 0 0 0 0 0 0 0 0 0 0 0 0 0 0 0 0 0 0 0 0 0 0 0 0 0 0 0 0 0 0 0
0 0 0 0 0 0 0 0 0 0 0 0 0 0 0 0 0 0 0 0 0 0 0 0 0 0 0 0 0 0 0 0 0 0 0 0 0 0 0 0 0 0 0
0 0 0 0 0 0 0 0 0 0 0 0 0 0 0 0 0 0 0 0 0 0 0 0 0 0 0 0 0 0 0 0 0 0 0 0 0 0 0 0 0 0 0
0 0 0 0 0 0 0 0 0 0 0 0 0 0 0 0 0 0 0 0 0 0 0 0 0 0 0 0 0 0 0 0 0 0 0 0 0 0 0 0 0 0 0
0 0 0 0 0 0 0 0 0 0 0 0 0 0 0 0 0 0 0 0 0 0 0 0 0 0 0 0 0 0 0 0 0 0 0 0 0 0 0 0 0 0 0
0 0 0 0 0 0 0 0 0 0 0 0 0 0 0 0 0 0 0 0 0 0 0 0 0 0 0 0 0 0 0 0 0 0 0 0 0 0 0 0 0 0 0
0 0 0 0 0 0 0 0 0 0 0 0 0 0 0 0 0 0 0 0 0 0 0 0 0 0 0 0 0 0 0 0 0 0 0 0 0 0 0 0 0 0 0
0 0 0 0 0 0 0 0 0 0 0 0 0 0 0 0 0 0 0 0 0 0 0 0 0 0 0 0 0 0 0 0 0 0 0 0 0 0 0 0 0 0 0
0 0 0 0 0 0 0 0 0 0 0 0 0 0 0 0 0 0 0 0 0 0 0 0 0 0 0 0 0 0 0 0 0 0 0 0 0 0 0 0 0 0 0
0 0 0 0 0 0 0 0 0 0 0 0 0 0 0 0 0 0 0 0 0 0 0 0 0 0 0 0 0 0 0 0 0 0 0 0 0 0 0 0 0 0 0
0 0 0 0 0 0 0 0 0 0 0 0 0 0 0 0 0 0 0 0 0 0 0 0 0 0 0 0 0 0 0 0 0 0 0 0 0 0 0 0 0 0 0
0 0 0 0 0 0 0 0 0 0 0 0 0 0 0 0 0 0 0 0 0 0 0 0 0 0 0 0 0 0 0 0 0 0 0 0 0 0 0 0 0 0 0
0 0 0 0 0 0 0 0 0 0 0 0 0 0 0 0 0 0 0 0 0 0 0 0 0 0 0 0 0 0 0 0 0 0 0 0 0 0 0 0 0 0 0
0 0 0 0 0 0 0 0 0 0 0 0 0 0 0 0 0 0 0 0 0 0 0 0 0 0 0 0 0 0 0 0 0 0 0 0 0 0 0 0 0 0 0
0 0 0 0 0 0 0 0 0 0 0 0 0 0 0 0 0 0 0 0 0 0 0 0 0 0 0 0 0 0 0 0 0 0 0 0 0 0 0 0 0 0 0
0 0 0 0 0 0 0 0 0 0 0 0 0 0 0 0 0 0 0 0 0 0 0 0 0 0 0 0 0 0 0 0 0 0 0 0 0 0 0 0 0 0 0
0 0 0 0 0 0 0 0 0 0 0 0 0 0 0 0 0 0 0 0 0 0 0 0 0 0 0 0 0 0 0 0 0 0 0 0 0 0 0 0 0 0 0
Wind_Speed
3 3 2 2 2 2 2 2 2 2 2 2 2 2 2 2 2 2 2 3 3 3 3 3 4 3 3 3 3 3 4 4 7 6 4 5 5 6 6 5 5 5 5
3 2 2 2 1 2 2 2 2 2 2 2 2 2 3 3 2 3 4 3 4 4 4 4 5 4 4 4 4 4 5 5 6 8 6 5 6 6 5 6 6 5 4
2 2 2 2 2 2 2 2 2 2 2 2 2 3 3 3 3 4 4 5 5 5 5 5 5 5 6 5 5 5 5 5 5 6 7 5 5 5 5 6 6 5 6
2 2 2 2 2 2 2 2 2 2 2 2 3 3 4 4 5 5 5 5 5 5 5 6 6 6 7 6 6 6 5 6 5 6 6 5 5 5 4 5 5 4 5
1 1 1 2 1 1 2 2 2 2 3 3 3 4 4 4 5 6 6 6 5 5 5 5 6 8 9 8 6 5 5 5 5 6 5 5 5 4 4 4 6 5 5
1 1 1 1 1 2 2 2 2 2 3 3 4 4 4 5 8 10 8 5 4 5 5 5 6 7 9 10 11 11 10 7 6 6 5 6 6 5 4 5 6 6 6
1 1 1 1 2 2 2 2 3 3 3 3 4 4 5 7 10 10 10 5 3 5 5 5 5 6 8 6 9 11 11 12 12 8 7 7 7 6 6 6 6 6 7
1 2 2 2 2 2 2 3 3 3 3 4 4 5 5 7 10 11 10 4 4 5 5 6 6 6 7 8 7 6 7 7 9 7 6 7 6 6 6 6 6 6 6
2 2 2 2 3 3 3 4 3 3 3 4 4 4 5 7 10 11 9 3 4 5 6 6 6 6 10 12 6 6 7 7 9 11 11 10 11 10 8 4 4 4 6
3 3 3 3 3 4 4 4 3 3 4 4 5 4 5 6 10 11 10 3 4 5 5 6 8 9 11 11 6 5 7 7 6 7 7 8 7 7 8 5 4 5 5
3 3 3 3 3 4 3 3 3 3 3 4 5 5 5 7 9 10 10 4 4 5 5 4 5 10 12 11 8 5 8 7 4 4 5 5 4 3 4 4 4 4 5
2 3 3 3 3 3 2 3 3 3 3 4 4 5 4 5 7 9 11 10 8 5 5 4 6 11 11 10 7 8 10 8 3 3 4 4 4 4 4 4 4 4 5
3 3 3 3 3 3 3 3 3 3 3 4 4 4 4 4 5 10 11 10 10 6 5 9 10 10 9 6 8 9 7 3 3 3 4 4 4 4 4 4 4 4 5
3 3 3 3 3 3 3 3 3 3 3 4 4 4 5 4 4 5 5 5 7 6 5 7 9 8 6 6 6 4 3 3 3 4 4 4 4 4 4 4 4 4 4
3 3 3 3 3 3 3 3 4 4 5 5 4 4 5 5 7 10 7 5 4 4 4 2 2 2 2 3 3 2 2 3 3 3 3 4 4 4 4 3 3 3 4
3 3 3 3 3 3 3 4 6 6 9 9 8 7 6 8 10 10 10 10 9 7 3 2 2 2 3 3 3 3 3 3 3 3 3 4 4 4 4 3 3 3 4
3 4 3 3 3 3 3 3 4 5 7 7 8 9 9 9 10 10 10 9 8 5 2 2 3 3 3 3 3 4 4 4 3 3 4 4 4 4 4 4 4 4 4
3 4 4 3 3 3 3 3 3 3 4 4 6 8 9 9 9 9 9 6 4 3 2 2 3 3 3 3 4 4 4 4 3 3 4 4 4 4 4 4 4 4 5
3 3 3 3 3 3 3 3 3 4 4 4 4 5 7 8 8 8 7 3 3 3 3 3 3 3 3 3 4 4 4 4 4 4 4 4 4 4 4 4 5 7 6
3 5 4 3 2 2 2 3 3 3 3 3 4 4 4 4 3 4 3 3 3 3 3 3 3 3 3 4 4 4 4 4 4 4 4 4 4 4 5 6 5 5 5
2 4 6 4 2 3 3 3 3 3 3 4 4 5 8 4 3 3 3 3 3 3 3 3 3 3 3 4 4 4 5 4 4 4 4 4 4 5 5 5 5 5 5
2 2 2 2 2 3 3 3 3 3 4 4 4 5 8 4 3 3 3 4 4 3 3 3 3 4 4 4 4 4 5 5 5 4 4 5 5 5 5 5 5 5 5
2 2 2 2 2 4 4 3 3 3 3 4 4 4 4 3 4 4 4 4 4 4 3 3 4 4 4 4 4 4 5 5 5 5 5 5 5 5 5 6 6 6 6
2 2 3 3 2 3 3 3 3 3 3 4 4 4 4 4 4 5 4 4 4 4 4 4 4 6 7 6 5 5 5 6 6 6 7 7 7 6 6 6 6 7 7
2 2 3 3 3 3 3 3 4 4 4 4 4 4 4 4 4 4 4 4 5 5 5 5 4 5 7 8 8 7 10 13 11 7 6 6 7 7 7 7 6 6 6
2 2 2 3 3 3 3 3 4 4 4 4 4 4 4 4 4 4 4 4 4 5 6 5 6 7 8 7 9 11 13 13 13 13 7 5 6 6 6 6 7 6 6
Wind_Direction
175 171 176 184 180 182 205 218 224 241 254 262 270 275 277 281 271 261 267 266 264 274 279 277 279 279 277 274 272 271 268 263 271 281 279 289 286 289 297 296 292 293 295
172 165 176 180 176 196 225 233 224 236 249 255 261 268 275 281 277 260 261 265 259 265 271 275 280 282 280 277 272 271 270 266 264 278 285 288 284 286 287 288 295 296 289
152 159 170 185 199 217 234 245 240 238 249 260 261 262 269 272 269 265 255 255 255 258 262 263 269 272 275 274 272 269 268 271 265 269 278 279 282 286 290 289 286 281 287
140 166 189 204 216 227 237 245 247 244 248 252 263 263 265 269 269 267 267 262 258 262 262 261 262 261 265 267 269 265 265 267 265 265 269 274 273 275 275 288 294 285 287
152 189 222 225 220 236 248 251 255 256 260 259 265 270 274 269 260 258 256 259 256 259 264 264 264 269 273 273 273 270 266 264 267 261 265 271 271 277 274 282 285 290 283
178 229 248 232 236 251 256 257 263 265 268 268 266 269 273 275 276 277 273 262 257 258 265 270 273 276 283 289 292 289 284 278 275 264 263 267 273 274 274 276 279 288 287
218 246 252 252 260 264 264 264 262 263 262 266 266 264 267 272 279 281 280 277 255 264 266 269 275 278 289 280 285 291 290 290 288 283 273 270 272 269 268 270 269 273 277
238 253 256 255 262 269 264 262 262 261 259 262 266 262 266 273 283 285 286 279 259 264 268 265 266 271 274 276 272 276 276 278 284 281 266 269 270 264 259 266 270 278 282
248 254 259 261 263 265 263 263 268 264 266 262 261 258 262 277 285 286 288 269 268 267 269 268 267 263 275 285 284 280 285 287 293 287 284 285 289 287 282 274 270 273 281
259 259 263 262 259 258 258 263 267 262 265 271 275 267 264 270 281 287 291 267 272 271 270 269 277 280 283 289 280 269 278 283 288 294 294 296 293 292 290 276 266 266 279
277 274 272 266 264 261 257 259 259 267 274 273 275 275 267 270 281 288 292 281 267 270 273 273 274 286 291 292 292 274 278 291 288 286 289 289 289 283 280 275 268 263 267
286 285 278 273 272 272 255 262 261 258 265 270 274 280 271 271 281 283 288 290 288 274 273 272 273 286 292 296 294 290 298 303 293 288 287 288 290 289 288 284 282 276 267
290 286 284 283 278 273 253 257 262 251 257 269 268 275 280 276 275 286 289 290 290 284 273 281 289 296 299 297 294 298 304 299 290 286 284 286 288 287 290 289 287 286 286
282 285 284 280 280 276 268 258 257 255 259 268 269 271 276 278 275 274 270 274 280 282 280 284 293 300 303 300 300 302 292 274 277 278 283 287 291 287 286 286 287 289 289
284 280 281 276 272 273 271 260 262 250 250 263 260 260 270 274 278 285 286 277 269 268 283 273 282 291 292 291 287 282 280 283 282 281 285 290 292 291 291 292 287 286 279
279 283 278 272 270 273 277 289 282 282 286 289 291 291 287 291 302 306 308 308 307 302 299 273 277 276 274 279 285 286 282 280 282 283 285 286 290 292 292 294 288 281 279
269 278 276 272 271 272 274 281 296 303 299 300 301 303 304 307 310 312 312 311 313 318 303 277 271 272 273 275 277 279 281 280 280 279 279 281 284 288 289 287 284 282 279
274 277 278 269 267 266 270 273 277 288 300 305 305 306 309 312 314 315 318 323 317 319 283 273 273 276 278 276 273 273 277 281 277 274 275 276 276 281 285 283 281 276 277
271 273 272 271 270 269 272 274 275 279 284 295 304 307 311 314 315 317 324 319 299 299 293 284 280 282 284 283 279 276 276 277 275 276 275 273 272 272 275 275 275 280 281
269 280 285 282 278 276 272 270 275 280 285 289 292 297 306 311 309 314 316 303 293 288 286 283 282 281 282 282 282 282 280 277 276 278 278 276 274 270 269 270 270 272 271
269 277 285 290 278 274 273 271 272 275 278 283 286 291 300 301 295 297 298 294 290 283 280 281 282 282 279 278 278 277 276 275 275 274 275 274 272 272 270 269 267 266 270
261 269 272 275 279 277 275 270 272 272 275 281 289 297 305 311 304 297 294 293 290 284 278 276 278 274 270 268 269 272 273 275 275 273 273 273 272 271 271 268 269 269 267
259 266 274 278 278 283 291 283 273 272 277 281 287 293 299 298 296 295 293 294 293 290 286 279 277 278 275 271 266 262 264 267 267 266 268 270 270 270 268 266 266 267 268
252 258 266 273 276 274 277 280 278 277 280 284 287 289 290 291 292 294 296 296 296 293 288 282 275 275 278 281 277 268 263 265 264 260 257 259 265 268 266 265 266 266 268
252 262 267 267 269 271 274 277 279 280 282 284 284 286 288 289 290 291 292 293 296 296 294 288 280 278 278 279 279 276 276 279 278 271 255 253 257 260 262 264 267 269 269
265 268 269 270 269 270 272 275 278 281 283 284 284 284 285 286 287 288 290 291 295 296 295 293 285 283 283 282 280 281 284 285 285 283 276 259 256 263 264 263 267 268 271